Torna al catalogo

CZ-6A DEB

AttivoSSO
NORAD 56595·DEBRIS·🇨🇳 China

Lanciato Nov 11, 2022 da Taiyuan Satellite Launch Center

Loading…

Prossimi Passaggi (prossime 24 ore)

TLE

AggiornatoSource: Space-Track

Epoca: Sep 13, 2026, 17:35 UTC

1 56595U 22151ADT 26256.73306314  .00000836  00000-0  36939-3 0  9999
2 56595  98.7354 258.3607 0130771 284.0853  74.5819 14.21491385175474

Traccia CZ-6A DEB in tempo reale con AllMySat

Download on the App Store